Location: Jackson Park
(37.2862°N, 79.9123°W)
Time: 12:07:19
(UTC+00:00)

Vanguard 3 - Pass Details

Date: 14 May 2026
Orbit: 507 x 3204 km, 33.3° (Epoch: 11 June)

Event Time Altitude Azimuth Distance (km) Brightness Sun altitude
Rises 22:11:32 0° 271° (W) 7,139 13.4 23.9°
Reaches altitude 10° 22:16:23 10° 270° (W) 6,120 13.6 22.9°
Maximum altitude 22:35:33 74° 191° (S) 2,726 10.1 19.1°
Drops below altitude 10° 22:48:12 10° 109° (ESE) 4,259 10.3 16.7°
Sets 22:50:56 0° 107° (ESE) 4,954 10.5 16.1°
